Satellite: POLLUX
Catalog number: 35693
Epoch time:      09285.77832344
Element set:      73
Inclination:      051.6402 deg
RA of node:       058.8149 deg
Eccentricity:    0.0003511
Arg of perigee:   306.2170 deg
Mean anomaly:     053.8655 deg
Mean motion:   15.83225810 rev/day
Decay rate:     3.0924e-04 rev/day^2
Epoch rev:            1172
Checksum:              283

Satellite: CASTOR
Catalog number: 35694
Epoch time:      09284.80289517
Element set:    0070
Inclination:      051.6406 deg
RA of node:       064.3194 deg
Eccentricity:    0.0003314
Arg of perigee:   304.6725 deg
Mean anomaly:     055.3981 deg
Mean motion:   15.81593859 rev/day
Decay rate:     1.4690e-04 rev/day^2
Epoch rev:           01156
Checksum:              309

Satellite: METEOR-M
Catalog number: 35865
Epoch time:      09284.86286414
Element set:    0023
Inclination:      098.7970 deg
RA of node:       334.9699 deg
Eccentricity:    0.0003006
Arg of perigee:   018.0496 deg
Mean anomaly:     342.0763 deg
Mean motion:   14.21827135 rev/day
Decay rate:       1.76e-06 rev/day^2
Epoch rev:           00343
Checksum:              307

Satellite: STERKH-2
Catalog number: 35866
Epoch time:      09284.85490013
Element set:    0026
Inclination:      098.7970 deg
RA of node:       334.9841 deg
Eccentricity:    0.0003782
Arg of perigee:   011.9362 deg
Mean anomaly:     348.1881 deg
Mean motion:   14.22296629 rev/day
Decay rate:       1.78e-06 rev/day^2
Epoch rev:           00343
Checksum:              317

Satellite: FREGAT-I
Catalog number: 35867
Epoch time:      09284.84547142
Element set:      36
Inclination:      097.3705 deg
RA of node:       334.4703 deg
Eccentricity:    0.0009498
Arg of perigee:   195.7614 deg
Mean anomaly:     164.3227 deg
Mean motion:   15.22724818 rev/day
Decay rate:      2.265e-05 rev/day^2
Epoch rev:             367
Checksum:              319

Satellite: SUMBDILA
Catalog number: 35870
Epoch time:      09285.78893583
Element set:      73
Inclination:      097.3691 deg
RA of node:       335.3867 deg
Eccentricity:    0.0011018
Arg of perigee:   199.6753 deg
Mean anomaly:     296.9377 deg
Mean motion:   15.22806507 rev/day
Decay rate:       3.48e-06 rev/day^2
Epoch rev:             381
Checksum:              344

/EX



_______________________________________________
Via the Keps mailing list courtesy of AMSAT-NA
http://amsat.org/mailman/listinfo/keps

--- ViaMAIL!/WC v1.60d
 * Origin: Chowdanet (401-724-4410) telnet://chowdanet.com  (1:323/120)